Dades meteomassalio
Diari Summary for Juliol 9, 2017 Units:  Metric    English   Both
« Previous Day
Next Day »
Diari Semanal Mensual Anual Personalitzat
  Maxima: Minima: Mijana:
Temperatura: -17.8 °C -8.1 °C -4.5 °C
Rosada: -17.8 °C -9.9 °C -8.8 °C
Humitat: Humidity % 36 % 65 %
Velocitat del vent: 0 km/h 0 km/h 12.2 km/h
Racha vent: 0 km/h - -
Vent:- - WNW
Pressio: 0 hPa 34222.3 hPa -
Pluja: 0 mm    
Historical Graphs
 
 
Tabular Data for Juliol 9, 2017
Time Temperature Dew Point Pressure Wind Wind Speed Wind Gust Humidity Rainfall Rate (Hourly) solar Conditions
-17.8 °C -17.8 °C 0 hPa Calm     Humidity % 0 mm SolarRadiationWatts/m^2 W/m2 Conditions
00:03 -7.2 °C -8.2 °C 34293.4 hPa Calm     90 % 0 mm 0.0 W/m2 RA
00:08 -7.3 °C -8.2 °C 34303.6 hPa Calm     90 % 0 mm 0.0 W/m2 CLR
00:09 -7.3 °C -8.2 °C 34303.6 hPa Calm     90 % 0 mm 0.0 W/m2 CLR
00:14 -7.3 °C -8.2 °C 34303.6 hPa Calm     90 % 0 mm 0.0 W/m2 CLR
00:19 -7.4 °C -8.3 °C 34303.6 hPa Calm     90 % 0 mm 0.0 W/m2 CLR
00:24 -7.4 °C -8.4 °C 34303.6 hPa Calm     90 % 0 mm 0.0 W/m2 CLR
00:29 -7.4 °C -8.3 °C 34303.6 hPa Calm     91 % 0 mm 0.0 W/m2 CLR
00:34 -7.4 °C -8.3 °C 34303.6 hPa Calm     91 % 0 mm 0.0 W/m2 CLR
00:39 -7.5 °C -8.3 °C 34313.7 hPa Calm     91 % 0 mm 0.0 W/m2 CLR
00:45 -7.5 °C -8.3 °C 34313.7 hPa Calm     91 % 0 mm 0.0 W/m2 CLR
00:50 -7.6 °C -8.4 °C 34313.7 hPa Calm     91 % 0 mm 0.0 W/m2 CLR
00:55 -7.6 °C -8.3 °C 34303.6 hPa Calm     92 % 0 mm 0.0 W/m2 CLR
01:00 -7.6 °C -8.4 °C 34313.7 hPa Calm     91 % 0 mm 0.0 W/m2 CLR
01:05 -7.7 °C -8.5 °C 34313.7 hPa Calm     91 % 0 mm 0.0 W/m2 CLR
01:10 -7.7 °C -8.4 °C 34313.7 hPa Calm     92 % 0 mm 0.0 W/m2 CLR
01:15 -7.7 °C -8.5 °C 34313.7 hPa Calm     92 % 0 mm 0.0 W/m2 CLR
01:20 -7.8 °C -8.5 °C 34313.7 hPa Calm     92 % 0 mm 0.0 W/m2 CLR
01:25 -7.8 °C -8.5 °C 34313.7 hPa Calm     92 % 0 mm 0.0 W/m2 CLR
01:30 -7.8 °C -8.5 °C 34313.7 hPa Calm     92 % 0 mm 0.0 W/m2 CLR
01:35 -7.8 °C -8.5 °C 34313.7 hPa Calm     92 % 0 mm 0.0 W/m2 CLR
01:40 -7.7 °C -8.5 °C 34313.7 hPa Calm     92 % 0 mm 0.0 W/m2 CLR
01:45 -7.7 °C -8.5 °C 34313.7 hPa Calm     92 % 0 mm 0.0 W/m2 CLR
01:50 -7.8 °C -8.6 °C 34313.7 hPa Calm     91 % 0 mm 0.0 W/m2 CLR
01:55 -7.7 °C -8.6 °C 34313.7 hPa Calm     91 % 0 mm 0.0 W/m2 CLR
02:00 -7.6 °C -8.5 °C 34313.7 hPa Calm     90 % 0 mm 0.0 W/m2 CLR
02:05 -7.4 °C -8.6 °C 34313.7 hPa West 11.9 km/h 11.9 km/h 88 % 0 mm 0.0 W/m2 CLR
02:10 -7.3 °C -8.6 °C 34313.7 hPa WNW 15 km/h 15 km/h 86 % 0 mm 0.0 W/m2 CLR
02:15 -7.2 °C -8.7 °C 34313.7 hPa West 15 km/h 15 km/h 85 % 0 mm 0.0 W/m2 CLR
02:20 -7.2 °C -8.7 °C 34313.7 hPa West 10.3 km/h 10.3 km/h 84 % 0 mm 0.0 W/m2 CLR
02:25 -7.2 °C -8.7 °C 34313.7 hPa West 12.9 km/h 12.9 km/h 84 % 0 mm 0.0 W/m2 CLR
02:30 -7.2 °C -8.7 °C 34313.7 hPa Calm     84 % 0 mm 0.0 W/m2 CLR
02:35 -7.2 °C -8.7 °C 34313.7 hPa West 9 km/h 9 km/h 84 % 0 mm 0.0 W/m2 CLR
02:40 -7.2 °C -8.8 °C 34327.3 hPa Calm     83 % 0 mm 0.0 W/m2 CLR
02:45 -7.2 °C -8.8 °C 34313.7 hPa Calm     83 % 0 mm 0.0 W/m2 CLR
02:50 -7.2 °C -8.8 °C 34327.3 hPa Calm     83 % 0 mm 0.0 W/m2 CLR
02:55 -7.2 °C -8.8 °C 34313.7 hPa West 9 km/h 9 km/h 84 % 0 mm 0.0 W/m2 CLR
03:00 -7.2 °C -8.8 °C 34313.7 hPa Calm     84 % 0 mm 0.0 W/m2 CLR
03:05 -7.3 °C -8.8 °C 34313.7 hPa WNW 6 km/h   84 % 0 mm 0.0 W/m2 CLR
03:10 -7.3 °C -8.8 °C 34327.3 hPa West 7.7 km/h   84 % 0 mm 0.0 W/m2 CLR
03:15 -7.3 °C -8.8 °C 34327.3 hPa West 15 km/h 15 km/h 84 % 0 mm 0.0 W/m2 CLR
03:20 -7.3 °C -8.8 °C 34327.3 hPa Calm     84 % 0 mm 0.0 W/m2 CLR
03:25 -7.3 °C -8.8 °C 34327.3 hPa WSW 20.9 km/h 20.9 km/h 84 % 0 mm 0.0 W/m2 CLR
03:30 -7.2 °C -8.7 °C 34327.3 hPa Calm     84 % 0 mm 0.0 W/m2 CLR
03:35 -7.3 °C -8.8 °C 34327.3 hPa Calm     84 % 0 mm 0.0 W/m2 CLR
03:40 -7.4 °C -8.9 °C 34327.3 hPa Calm     84 % 0 mm 0.0 W/m2 CLR
03:45 -7.4 °C -8.8 °C 34327.3 hPa West 17.9 km/h 17.9 km/h 85 % 0 mm 0.0 W/m2 CLR
03:50 -7.4 °C -8.8 °C 34313.7 hPa WSW 11.9 km/h 11.9 km/h 85 % 0 mm 0.0 W/m2 CLR
03:55 -7.4 °C -8.8 °C 34313.7 hPa WSW 11.9 km/h 11.9 km/h 85 % 0 mm 0.0 W/m2 CLR
03:58 -7.4 °C -8.9 °C 34313.7 hPa SW 15 km/h 15 km/h 85 % 0 mm 0.0 W/m2 CLR
04:03 -7.6 °C -8.9 °C 34313.7 hPa WSW 17.9 km/h 17.9 km/h 85 % 0 mm 0.0 W/m2 CLR
04:08 -7.6 °C -9 °C 34313.7 hPa WSW 10.3 km/h 10.3 km/h 85 % 0 mm 0.0 W/m2 CLR
04:13 -7.6 °C -8.9 °C 34313.7 hPa West 15 km/h 15 km/h 85 % 0 mm 0.0 W/m2 CLR
04:18 -7.5 °C -8.9 °C 34313.7 hPa WNW 29.8 km/h 29.8 km/h 85 % 0 mm 0.0 W/m2 CLR
04:23 -7.4 °C -8.9 °C 34313.7 hPa West 17.9 km/h 17.9 km/h 84 % 0 mm 0.0 W/m2 CLR
04:28 -7.3 °C -8.8 °C 34313.7 hPa West 20.9 km/h 20.9 km/h 84 % 0 mm 0.0 W/m2 CLR
04:33 -7.3 °C -8.9 °C 34313.7 hPa WNW 17.9 km/h 17.9 km/h 83 % 0 mm 0.0 W/m2 CLR
04:38 -7.3 °C -8.9 °C 34313.7 hPa West 15 km/h 15 km/h 83 % 0 mm 0.0 W/m2 CLR
04:43 -7.3 °C -8.9 °C 34313.7 hPa SW 17.9 km/h 17.9 km/h 84 % 0 mm 0.0 W/m2 CLR
04:48 -7.4 °C -9 °C 34303.6 hPa WSW 26.9 km/h 26.9 km/h 84 % 0 mm 0.0 W/m2 CLR
04:53 -7.6 °C -9 °C 34303.6 hPa WSW 15.6 km/h 15.6 km/h 85 % 0 mm 0.0 W/m2 CLR
04:58 -7.7 °C -9 °C 34313.7 hPa WSW 9 km/h 9 km/h 86 % 0 mm 0.0 W/m2 CLR
05:03 -7.6 °C -8.9 °C 34303.6 hPa West 10.3 km/h 10.3 km/h 86 % 0 mm 0.0 W/m2 CLR
05:08 -7.6 °C -9 °C 34313.7 hPa WNW 20.9 km/h 20.9 km/h 85 % 0 mm 0.0 W/m2 CLR
05:13 -7.5 °C -8.9 °C 34313.7 hPa West 11.9 km/h 11.9 km/h 85 % 0 mm 0.0 W/m2 CLR
05:18 -7.5 °C -9.1 °C 34313.7 hPa WSW 9 km/h 9 km/h 84 % 0 mm 0.0 W/m2 CLR
05:23 -7.6 °C -9.1 °C 34313.7 hPa Calm     84 % 0 mm 0.0 W/m2 CLR
05:28 -7.6 °C -9.1 °C 34313.7 hPa Calm     84 % 0 mm 0.0 W/m2 CLR
05:33 -7.6 °C -9.1 °C 34303.6 hPa Calm     85 % 0 mm 0.0 W/m2 CLR
05:38 -7.7 °C -9.1 °C 34313.7 hPa Calm     85 % 0 mm 0.0 W/m2 CLR
05:43 -7.7 °C -9.1 °C 34313.7 hPa Calm     86 % 0 mm 0.0 W/m2 CLR
05:48 -7.8 °C -9.2 °C 34313.7 hPa Calm     86 % 0 mm 0.0 W/m2 CLR
05:53 -7.9 °C -9.2 °C 34313.7 hPa Calm     86 % 0 mm 0.0 W/m2 CLR
05:58 -7.9 °C -9.1 °C 34313.7 hPa Calm     87 % 0 mm 0.0 W/m2 CLR
06:03 -7.9 °C -9.2 °C 34313.7 hPa SW 6 km/h 6 km/h 87 % 0 mm 0.0 W/m2 CLR
06:08 -7.9 °C -9.2 °C 34313.7 hPa SW 9 km/h 9 km/h 87 % 0 mm 0.0 W/m2 CLR
06:13 -8 °C -9.2 °C 34313.7 hPa Calm     87 % 0 mm 0.0 W/m2 CLR
06:18 -8.1 °C -9.3 °C 34313.7 hPa Calm     87 % 0 mm 0.0 W/m2 CLR
06:23 -8.1 °C -9.2 °C 34313.7 hPa Calm     88 % 0 mm 0.0 W/m2 CLR
06:28 -8 °C -9.2 °C 34313.7 hPa Calm     87 % 0 mm 0.0 W/m2 OVC
06:33 -8 °C -9.2 °C 34327.3 hPa Calm     87 % 0 mm 0.0 W/m2 OVC
06:38 -7.9 °C -9.1 °C 34313.7 hPa West 11.9 km/h 11.9 km/h 88 % 0 mm 5.0 W/m2 OVC
06:43 -7.7 °C -9.1 °C 34327.3 hPa West 9 km/h 9 km/h 86 % 0 mm 7.0 W/m2 BKN
06:48 -7.6 °C -9 °C 34313.7 hPa Calm     85 % 0 mm 11.0 W/m2 BKN
06:53 -7.4 °C -9 °C 34327.3 hPa Calm     84 % 0 mm 14.0 W/m2 BKN
06:58 -7.5 °C -9.1 °C 34327.3 hPa Calm     84 % 0 mm 18.0 W/m2 BKN
07:03 -7.7 °C -9.1 °C 34327.3 hPa Calm     85 % 0 mm 19.0 W/m2 BKN
07:08 -7.8 °C -9.2 °C 34327.3 hPa Calm     86 % 0 mm 23.0 W/m2 BKN
07:13 -7.9 °C -9.2 °C 34327.3 hPa Calm     86 % 0 mm 30.0 W/m2 BKN
07:18 -7.9 °C -9.2 °C 34327.3 hPa Calm     86 % 0 mm 40.0 W/m2 BKN
07:23 -7.9 °C -9.1 °C 34327.3 hPa Calm     87 % 0 mm 49.0 W/m2 SCT
07:28 -7.8 °C -9.1 °C 34327.3 hPa Calm     87 % 0 mm 58.0 W/m2 SCT
07:33 -7.7 °C -8.9 °C 34327.3 hPa Calm     87 % 0 mm 70.0 W/m2 FEW
07:38 -7.7 °C -8.9 °C 34327.3 hPa Calm     87 % 0 mm 83.0 W/m2 FEW
07:43 -7.6 °C -8.8 °C 34327.3 hPa Calm     87 % 0 mm 93.0 W/m2 FEW
07:48 -7.6 °C -8.8 °C 34327.3 hPa Calm     87 % 0 mm 109.0 W/m2 CLR
07:53 -7.4 °C -8.7 °C 34327.3 hPa Calm     87 % 0 mm 120.0 W/m2 CLR
07:58 -7.3 °C -8.6 °C 34327.3 hPa NNW 10.3 km/h 10.3 km/h 86 % 0 mm 139.0 W/m2 CLR
08:03 -7.1 °C -8.6 °C 34327.3 hPa WNW 10.3 km/h 10.3 km/h 85 % 0 mm 149.0 W/m2 CLR
08:08 -6.9 °C -8.6 °C 34327.3 hPa WNW 11.9 km/h 11.9 km/h 83 % 0 mm 158.0 W/m2 CLR
08:13 -6.8 °C -8.4 °C 34327.3 hPa Calm     83 % 0 mm 181.0 W/m2 CLR
08:18 -6.7 °C -8.4 °C 34327.3 hPa Calm     82 % 0 mm 204.0 W/m2 CLR
08:23 -6.6 °C -8.4 °C 34327.3 hPa Calm     81 % 0 mm 220.0 W/m2 CLR
08:24 -6.5 °C -8.4 °C 34327.3 hPa Calm     81 % 0 mm 220.0 W/m2 CLR
08:29 -6.4 °C -8.5 °C 34327.3 hPa West 20.9 km/h 20.9 km/h 79 % 0 mm 232.0 W/m2 CLR
08:34 -6.3 °C -8.4 °C 34327.3 hPa NW 15 km/h 15 km/h 79 % 0 mm 248.0 W/m2 CLR
08:35 -6.3 °C -8.4 °C 34327.3 hPa WNW 17.9 km/h 17.9 km/h 79 % 0 mm 255.0 W/m2 CLR
08:39 -6.3 °C -8.6 °C 34327.3 hPa WNW 17.9 km/h 17.9 km/h 77 % 0 mm 267.0 W/m2 CLR
08:44 -6.2 °C -8.4 °C 34327.3 hPa NW 15.6 km/h 15.6 km/h 78 % 0 mm 283.0 W/m2 CLR
08:49 -6.2 °C -8.5 °C 34327.3 hPa NW 9 km/h   77 % 0 mm 301.0 W/m2 CLR
08:54 -6.1 °C -8.5 °C 34327.3 hPa Calm     76 % 0 mm 315.0 W/m2 CLR
08:59 -6 °C -8.6 °C 34327.3 hPa WNW 26.9 km/h 26.9 km/h 75 % 0 mm 330.0 W/m2 CLR
09:04 -5.9 °C -8.4 °C 34327.3 hPa NW 17.9 km/h 17.9 km/h 76 % 0 mm 345.0 W/m2 CLR
09:09 -5.9 °C -8.6 °C 34327.3 hPa NW 15 km/h 15 km/h 74 % 0 mm 362.0 W/m2 CLR
09:14 -5.8 °C -8.3 °C 34327.3 hPa NNW 10.3 km/h 10.3 km/h 75 % 0 mm 376.0 W/m2 CLR
09:19 -5.7 °C -8.4 °C 34327.3 hPa NW 5.1 km/h 5.1 km/h 74 % 0 mm 390.0 W/m2 CLR
09:24 -5.6 °C -8.4 °C 34327.3 hPa NW 25.9 km/h 25.9 km/h 73 % 0 mm 406.0 W/m2 CLR
09:29 -5.6 °C -8.5 °C 34327.3 hPa NW 32.8 km/h 32.8 km/h 72 % 0 mm 418.0 W/m2 CLR
09:34 -5.5 °C -8.4 °C 34327.3 hPa NW 18.2 km/h 18.2 km/h 72 % 0 mm 434.0 W/m2 CLR
09:39 -5.4 °C -8.2 °C 34327.3 hPa NW 17.9 km/h 17.9 km/h 73 % 0 mm 452.0 W/m2 CLR
09:44 -5.3 °C -8.5 °C 34327.3 hPa NW 17.9 km/h 17.9 km/h 70 % 0 mm 468.0 W/m2 CLR
09:49 -5.2 °C -8.4 °C 34327.3 hPa North 23.8 km/h 23.8 km/h 70 % 0 mm 482.0 W/m2 CLR
09:54 -5.2 °C -8.4 °C 34327.3 hPa NW 20.9 km/h 20.9 km/h 70 % 0 mm 504.0 W/m2 CLR
09:59 -5.2 °C -8.4 °C 34327.3 hPa NW 29.8 km/h 29.8 km/h 70 % 0 mm 515.0 W/m2 CLR
10:04 -5.2 °C -8.7 °C 34327.3 hPa NW 23.3 km/h 23.3 km/h 68 % 0 mm 297.0 W/m2 CLR
10:09 -5.1 °C -8.3 °C 34327.3 hPa NNW 17.9 km/h 17.9 km/h 70 % 0 mm 545.0 W/m2 CLR
10:14 -5.1 °C -8.6 °C 34327.3 hPa NW 29.8 km/h 29.8 km/h 68 % 0 mm 559.0 W/m2 CLR
10:19 -5 °C -8.4 °C 34327.3 hPa NW 23.8 km/h 23.8 km/h 68 % 0 mm 598.0 W/m2 CLR
10:24 -4.9 °C -8.4 °C 34327.3 hPa West 23.8 km/h 23.8 km/h 68 % 0 mm 613.0 W/m2 CLR
10:29 -4.8 °C -8.1 °C 34327.3 hPa NW 20.9 km/h 20.9 km/h 69 % 0 mm 598.0 W/m2 CLR
10:34 -4.8 °C -8.1 °C 34327.3 hPa NNW 47.6 km/h 47.6 km/h 69 % 0 mm 605.0 W/m2 CLR
10:39 -4.8 °C -8.2 °C 34327.3 hPa NNW 23.8 km/h 23.8 km/h 68 % 0 mm 628.0 W/m2 CLR
10:44 -4.7 °C -8.3 °C 34327.3 hPa WNW 20.8 km/h 20.8 km/h 67 % 0 mm 636.0 W/m2 CLR
10:49 -4.7 °C -8.4 °C 34327.3 hPa NW 41.7 km/h 41.7 km/h 66 % 0 mm 654.0 W/m2 CLR
10:54 -4.6 °C -8.5 °C 34327.3 hPa WNW 23.3 km/h 23.3 km/h 65 % 0 mm 598.0 W/m2 CLR
10:59 -4.6 °C -8.4 °C 34327.3 hPa WNW 29.8 km/h 29.8 km/h 65 % 0 mm 715.0 W/m2 CLR
11:04 -4.6 °C -8.3 °C 34327.3 hPa NNW 17.9 km/h 17.9 km/h 66 % 0 mm 721.0 W/m2 CLR
11:10 -4.4 °C -8.2 °C 34327.3 hPa NNW 25.9 km/h 25.9 km/h 66 % 0 mm 766.0 W/m2 CLR
11:14 -4.4 °C -8.2 °C 34327.3 hPa NNW 28.5 km/h 28.5 km/h 66 % 0 mm 450.0 W/m2 CLR
11:20 -4.3 °C -8.1 °C 34327.3 hPa NNW 29.8 km/h 29.8 km/h 66 % 0 mm 795.0 W/m2 CLR
11:25 -4.3 °C -8.3 °C 34327.3 hPa NNW 26.9 km/h 26.9 km/h 64 % 0 mm 863.0 W/m2 CLR
11:30 -4.2 °C -8.1 °C 34327.3 hPa NNW 26.9 km/h 26.9 km/h 65 % 0 mm 904.0 W/m2 CLR
11:35 -4.3 °C -8.3 °C 34327.3 hPa NW 17.9 km/h 17.9 km/h 64 % 0 mm 826.0 W/m2 CLR
11:40 -4.3 °C -7.9 °C 34327.3 hPa NNW 20.9 km/h 20.9 km/h 67 % 0 mm 796.0 W/m2 CLR
11:45 -4.2 °C -8.2 °C 34327.3 hPa NNW 26.9 km/h 26.9 km/h 64 % 0 mm 847.0 W/m2 CLR
11:50 -4.1 °C -8.2 °C 34327.3 hPa NW 29.8 km/h 29.8 km/h 64 % 0 mm 953.0 W/m2 CLR
11:55 -4.2 °C -8.1 °C 34337.4 hPa Calm     65 % 0 mm 264.0 W/m2 CLR
11:56 -4.1 °C -8.2 °C 34337.4 hPa Calm     64 % 0 mm 243.0 W/m2 CLR
12:01 -4.2 °C -8.1 °C 34337.4 hPa NNW 31.1 km/h 31.1 km/h 65 % 0 mm 221.0 W/m2 CLR
12:06 -4.4 °C -8.4 °C 34337.4 hPa NNW 15 km/h 15 km/h 64 % 0 mm 236.0 W/m2 CLR
12:11 -4.3 °C -8.4 °C 34337.4 hPa NW 29.8 km/h 29.8 km/h 64 % 0 mm 197.0 W/m2 CLR
12:16 -4.1 °C -8 °C 34327.3 hPa WNW 23.8 km/h 23.8 km/h 65 % 0 mm 914.0 W/m2 CLR
12:21 -3.8 °C -8.1 °C 34327.3 hPa NW 29.8 km/h 29.8 km/h 63 % 0 mm 902.0 W/m2 CLR
12:26 -3.7 °C -8.1 °C 34327.3 hPa NW 23.8 km/h 23.8 km/h 62 % 0 mm 879.0 W/m2 CLR
12:31 -3.7 °C -8.1 °C 34327.3 hPa WNW 25.9 km/h 25.9 km/h 62 % 0 mm 875.0 W/m2 CLR
12:36 -3.7 °C -7.9 °C 34327.3 hPa NNW 38.8 km/h 38.8 km/h 63 % 0 mm 972.0 W/m2 CLR
12:41 -3.7 °C -8.1 °C 34327.3 hPa Calm     62 % 0 mm 942.0 W/m2 CLR
12:46 -3.7 °C -8.1 °C 34327.3 hPa NW 11.9 km/h 11.9 km/h 61 % 0 mm 928.0 W/m2 CLR
12:51 -3.6 °C -8.1 °C 34327.3 hPa NW 25.9 km/h 25.9 km/h 61 % 0 mm 937.0 W/m2 CLR
12:56 -3.5 °C -8 °C 34327.3 hPa NW 33.6 km/h 33.6 km/h 61 % 0 mm 969.0 W/m2 CLR
13:01 -3.3 °C -8.4 °C 34313.7 hPa West 29.8 km/h 29.8 km/h 57 % 0 mm 944.0 W/m2 CLR
13:06 -3.3 °C -8.5 °C 34313.7 hPa WNW 26.9 km/h 26.9 km/h 56 % 0 mm 940.0 W/m2 CLR
13:11 -3.2 °C -8 °C 34313.7 hPa NNW 29.8 km/h 29.8 km/h 59 % 0 mm 963.0 W/m2 CLR
13:16 -3.2 °C -8.3 °C 34313.7 hPa Calm     57 % 0 mm 962.0 W/m2 CLR
13:21 -3 °C -8.3 °C 34313.7 hPa WNW 41.7 km/h 41.7 km/h 56 % 0 mm 981.0 W/m2 CLR
13:26 -3.2 °C -8.7 °C 34313.7 hPa WNW 20.9 km/h 20.9 km/h 54 % 0 mm 279.0 W/m2 CLR
13:31 -3.2 °C -8.4 °C 34313.7 hPa West 38.8 km/h 38.8 km/h 56 % 0 mm 986.0 W/m2 CLR
13:36 -2.9 °C -8.4 °C 34313.7 hPa NW 33.6 km/h 33.6 km/h 55 % 0 mm 986.0 W/m2 CLR
13:41 -2.9 °C -8.5 °C 34303.6 hPa NW 29.8 km/h 29.8 km/h 54 % 0 mm 262.0 W/m2 CLR
13:46 -2.9 °C -8.3 °C 34303.6 hPa NW 17.9 km/h 17.9 km/h 55 % 0 mm 1099.0 W/m2 CLR
13:51 -2.9 °C -8.3 °C 34303.6 hPa NW 35.7 km/h 35.7 km/h 55 % 0 mm 1088.0 W/m2 CLR
13:56 -2.9 °C -8.3 °C 34303.6 hPa NNE 23.8 km/h 23.8 km/h 55 % 0 mm 1088.0 W/m2 CLR
14:01 -2.9 °C -8.5 °C 34303.6 hPa NW 6 km/h 6 km/h 54 % 0 mm 193.0 W/m2 CLR
14:06 -2.8 °C -7.9 °C 34303.6 hPa NW 33.6 km/h 33.6 km/h 57 % 0 mm 1004.0 W/m2 CLR
14:11 -2.8 °C -8.3 °C 34303.6 hPa NW 28.5 km/h 28.5 km/h 55 % 0 mm 1065.0 W/m2 CLR
14:16 -2.6 °C -8.4 °C 34303.6 hPa NW 32.8 km/h 32.8 km/h 53 % 0 mm 1016.0 W/m2 CLR
14:21 -2.4 °C -8.2 °C 34303.6 hPa North 31.1 km/h 31.1 km/h 53 % 0 mm 984.0 W/m2 CLR
14:26 -2.3 °C -8.1 °C 34293.4 hPa North 29.8 km/h 29.8 km/h 53 % 0 mm 990.0 W/m2 CLR
14:31 -2.3 °C -8.1 °C 34293.4 hPa NNW 26.9 km/h 26.9 km/h 53 % 0 mm 1002.0 W/m2 CLR
14:36 -2.3 °C -8.3 °C 34293.4 hPa NNW 26.9 km/h 26.9 km/h 52 % 0 mm 951.0 W/m2 CLR
14:41 -2.4 °C -8.5 °C 34293.4 hPa West 35.7 km/h 35.7 km/h 51 % 0 mm 946.0 W/m2 CLR
14:46 -2.3 °C -8.1 °C 34293.4 hPa NW 32.8 km/h 32.8 km/h 53 % 0 mm 965.0 W/m2 CLR
14:51 -2.1 °C -8.4 °C 34293.4 hPa NW 29.8 km/h 29.8 km/h 50 % 0 mm 937.0 W/m2 CLR
14:56 -2 °C -8.2 °C 34293.4 hPa NW 29.8 km/h 29.8 km/h 51 % 0 mm 921.0 W/m2 CLR
15:02 -2 °C -8.7 °C 34279.9 hPa NW 38.8 km/h 38.8 km/h 48 % 0 mm 926.0 W/m2 CLR
15:07 -1.9 °C -8.6 °C 34279.9 hPa NNW 53.6 km/h 53.6 km/h 48 % 0 mm 969.0 W/m2 CLR
15:12 -1.9 °C -8.8 °C 34279.9 hPa NNW 38.8 km/h 38.8 km/h 47 % 0 mm 1000.0 W/m2 CLR
15:17 -2 °C -8.3 °C 34279.9 hPa North 35.7 km/h 35.7 km/h 50 % 0 mm 960.0 W/m2 CLR
15:22 -2 °C -8.3 °C 34279.9 hPa NW 29.8 km/h 29.8 km/h 50 % 0 mm 939.0 W/m2 CLR
15:27 -1.7 °C -8.3 °C 34279.9 hPa NW 23.8 km/h 23.8 km/h 49 % 0 mm 967.0 W/m2 CLR
15:32 -1.7 °C -8.4 °C 34279.9 hPa WNW 32.8 km/h 32.8 km/h 48 % 0 mm 921.0 W/m2 CLR
15:37 -1.7 °C -8.4 °C 34279.9 hPa NNW 23.8 km/h 23.8 km/h 48 % 0 mm 993.0 W/m2 CLR
15:42 -1.7 °C -8.4 °C 34279.9 hPa NNW 38.8 km/h 38.8 km/h 48 % 0 mm 939.0 W/m2 CLR
15:47 -1.6 °C -8.1 °C 34279.9 hPa NW 29.8 km/h 29.8 km/h 49 % 0 mm 930.0 W/m2 CLR
15:52 -1.7 °C -8.1 °C 34279.9 hPa NNW 29.8 km/h 29.8 km/h 50 % 0 mm 190.0 W/m2 CLR
15:57 -1.6 °C -8.5 °C 34279.9 hPa NNW 32.8 km/h 32.8 km/h 47 % 0 mm 863.0 W/m2 CLR
16:02 -1.5 °C -8.4 °C 34279.9 hPa NNE 29.8 km/h 29.8 km/h 47 % 0 mm 830.0 W/m2 CLR
16:07 -1.5 °C -8.1 °C 34279.9 hPa WNW 10.3 km/h 10.3 km/h 49 % 0 mm 840.0 W/m2 CLR
16:12 -1.3 °C -8.3 °C 34279.9 hPa NNW 15 km/h 15 km/h 47 % 0 mm 821.0 W/m2 CLR
16:17 -1.3 °C -8.7 °C 34279.9 hPa WNW 29.8 km/h 29.8 km/h 45 % 0 mm 849.0 W/m2 CLR
16:22 -1.2 °C -8.3 °C 34269.7 hPa NNW 25.9 km/h 25.9 km/h 46 % 0 mm 796.0 W/m2 CLR
16:27 -1.1 °C -8.7 °C 34269.7 hPa NNW 35.7 km/h 35.7 km/h 44 % 0 mm 789.0 W/m2 CLR
16:32 -1.2 °C -8.6 °C 34269.7 hPa WNW 17.9 km/h 17.9 km/h 45 % 0 mm 777.0 W/m2 CLR
16:37 -1.2 °C -8.7 °C 34269.7 hPa North 23.8 km/h 23.8 km/h 44 % 0 mm 789.0 W/m2 CLR
16:42 -1.2 °C -8.9 °C 34269.7 hPa North 20.9 km/h 20.9 km/h 43 % 0 mm 759.0 W/m2 CLR
16:47 -1.2 °C -8.7 °C 34269.7 hPa North 15 km/h   44 % 0 mm 745.0 W/m2 CLR
16:52 -1 °C -8.6 °C 34269.7 hPa WNW 35.7 km/h 35.7 km/h 44 % 0 mm 728.0 W/m2 CLR
16:57 -1.1 °C -8.4 °C 34269.7 hPa NW 20.8 km/h 20.8 km/h 45 % 0 mm 719.0 W/m2 CLR
17:02 -1 °C -9 °C 34269.7 hPa NW 32.8 km/h 32.8 km/h 42 % 0 mm 700.0 W/m2 CLR
17:07 -1 °C -8.8 °C 34256.2 hPa North 41.7 km/h 41.7 km/h 43 % 0 mm 689.0 W/m2 CLR
17:12 -1.1 °C -8.8 °C 34269.7 hPa NNE 29.8 km/h 29.8 km/h 43 % 0 mm 675.0 W/m2 CLR
17:17 -1.1 °C -8.8 °C 34269.7 hPa Calm     43 % 0 mm 666.0 W/m2 CLR
17:22 -1 °C -9 °C 34269.7 hPa Calm     42 % 0 mm 652.0 W/m2 CLR
17:27 -0.9 °C -8.7 °C 34256.2 hPa NW 29.8 km/h 29.8 km/h 43 % 0 mm 642.0 W/m2 CLR
17:32 -0.9 °C -9.1 °C 34256.2 hPa Calm     41 % 0 mm 626.0 W/m2 CLR
17:42 -0.7 °C -8.9 °C 34256.2 hPa NW 9 km/h 9 km/h 41 % 0 mm 601.0 W/m2 CLR
17:47 -0.7 °C -8.7 °C 34256.2 hPa NNW 15 km/h 15 km/h 42 % 0 mm 582.0 W/m2 CLR
17:52 -0.7 °C -8.7 °C 34256.2 hPa NNE 15 km/h 15 km/h 42 % 0 mm 575.0 W/m2 CLR
17:57 -0.7 °C -8.8 °C 34246 hPa NE 11.9 km/h 11.9 km/h 41 % 0 mm 559.0 W/m2 CLR
18:02 -0.7 °C -8.9 °C 34246 hPa Calm     41 % 0 mm 545.0 W/m2 CLR
18:07 -0.6 °C -9 °C 34246 hPa NNW 18.2 km/h 18.2 km/h 40 % 0 mm 531.0 W/m2 CLR
18:12 -0.7 °C -9.1 °C 34246 hPa NNW 15 km/h 15 km/h 40 % 0 mm 512.0 W/m2 CLR
18:17 -0.6 °C -8.8 °C 34246 hPa NW 17.9 km/h 17.9 km/h 41 % 0 mm 499.0 W/m2 CLR
18:22 -0.6 °C -9 °C 34246 hPa NW 11.9 km/h 11.9 km/h 40 % 0 mm 487.0 W/m2 CLR
18:27 -0.4 °C -8.9 °C 34235.8 hPa North 18.2 km/h 18.2 km/h 40 % 0 mm 471.0 W/m2 CLR
18:32 -0.5 °C -8.9 °C 34235.8 hPa Calm     40 % 0 mm 454.0 W/m2 CLR
18:37 -0.4 °C -9.3 °C 34235.8 hPa NNW 9 km/h 9 km/h 38 % 0 mm 441.0 W/m2 CLR
18:42 -0.4 °C -9.1 °C 34235.8 hPa NW 17.9 km/h 17.9 km/h 39 % 0 mm 425.0 W/m2 CLR
18:47 -0.4 °C -9.3 °C 34235.8 hPa North 15 km/h 15 km/h 38 % 0 mm 410.0 W/m2 CLR
18:52 -0.4 °C -9.3 °C 34235.8 hPa Calm     38 % 0 mm 396.0 W/m2 CLR
18:57 -0.4 °C -9.3 °C 34235.8 hPa North 17.9 km/h 17.9 km/h 38 % 0 mm 378.0 W/m2 CLR
19:02 -0.4 °C -9.6 °C 34235.8 hPa NNW 17.9 km/h 17.9 km/h 37 % 0 mm 366.0 W/m2 CLR
19:07 -0.4 °C -9.6 °C 34235.8 hPa North 12.9 km/h 12.9 km/h 37 % 0 mm 352.0 W/m2 CLR
19:12 -0.5 °C -9.4 °C 34235.8 hPa North 3.1 km/h 3.1 km/h 38 % 0 mm 334.0 W/m2 CLR
19:17 -0.4 °C -9.3 °C 34235.8 hPa NNE 3.1 km/h 3.1 km/h 38 % 0 mm 316.0 W/m2 CLR
19:22 -0.4 °C -9.6 °C 34235.8 hPa North 9 km/h 9 km/h 37 % 0 mm 302.0 W/m2 CLR
19:27 -0.4 °C -9.7 °C 34235.8 hPa NNW 15 km/h 15 km/h 36 % 0 mm 288.0 W/m2 CLR
19:32 -0.4 °C -9.6 °C 34235.8 hPa NNW 9 km/h 9 km/h 37 % 0 mm 271.0 W/m2 CLR
19:37 -0.3 °C -9.7 °C 34235.8 hPa North 17.9 km/h 17.9 km/h 36 % 0 mm 255.0 W/m2 CLR
19:42 -0.5 °C -9.6 °C 34235.8 hPa NNW 15 km/h 15 km/h 37 % 0 mm 239.0 W/m2 CLR
19:47 -0.4 °C -9.8 °C 34235.8 hPa NNE 15 km/h 15 km/h 36 % 0 mm 223.0 W/m2 CLR
19:52 -0.6 °C -9.9 °C 34235.8 hPa North 11.9 km/h 11.9 km/h 36 % 0 mm 206.0 W/m2 CLR
19:57 -0.6 °C -9.9 °C 34235.8 hPa Calm     36 % 0 mm 190.0 W/m2 CLR
20:02 -0.4 °C -9.8 °C 34222.3 hPa Calm     36 % 0 mm 174.0 W/m2 CLR
20:07 -0.4 °C -9.8 °C 34222.3 hPa Calm     36 % 0 mm 158.0 W/m2 CLR
20:12 -0.4 °C -9.5 °C 34235.8 hPa Calm     37 % 0 mm 142.0 W/m2 CLR
20:17 -0.4 °C -9.6 °C 34222.3 hPa Calm     37 % 0 mm 125.0 W/m2 CLR
20:22 -0.4 °C -9.6 °C 34222.3 hPa Calm     37 % 0 mm 111.0 W/m2 CLR
20:27 -0.6 °C -9.7 °C 34222.3 hPa NNE 3.1 km/h   37 % 0 mm 97.0 W/m2 CLR
20:32 -0.7 °C -9.3 °C 34222.3 hPa Calm     39 % 0 mm 84.0 W/m2 CLR
20:37 -0.8 °C -9.7 °C 34222.3 hPa Calm     38 % 0 mm 70.0 W/m2 FEW
20:42 -0.9 °C -9.7 °C 34222.3 hPa Calm     38 % 0 mm 60.0 W/m2 SCT
20:47 -0.9 °C -9.6 °C 34222.3 hPa Calm     39 % 0 mm 51.0 W/m2 SCT
20:52 -1 °C -9.6 °C 34222.3 hPa Calm     39 % 0 mm 35.0 W/m2 BKN
20:57 -1.1 °C -9.7 °C 34222.3 hPa Calm     39 % 0 mm 28.0 W/m2 BKN
21:02 -1.2 °C -9.6 °C 34222.3 hPa Calm     40 % 0 mm 26.0 W/m2 BKN
21:07 -1.3 °C -9.7 °C 34222.3 hPa Calm     40 % 0 mm 21.0 W/m2 BKN
21:12 -1.4 °C -9.6 °C 34222.3 hPa Calm     41 % 0 mm 18.0 W/m2 BKN
21:17 -1.6 °C -9.1 °C 34222.3 hPa Calm     44 % 0 mm 14.0 W/m2 BKN
21:22 -1.8 °C -9.1 °C 34235.8 hPa Calm     45 % 0 mm 11.0 W/m2 BKN
21:27 -2 °C -9.1 °C 34222.3 hPa Calm     46 % 0 mm 7.0 W/m2 BKN
21:32 -2.2 °C -9.2 °C 34235.8 hPa Calm     46 % 0 mm 5.0 W/m2 OVC
21:38 -2.3 °C -9.3 °C 34235.8 hPa Calm     46 % 0 mm 0.0 W/m2 OVC
21:43 -2.3 °C -9 °C 34235.8 hPa Calm     48 % 0 mm 0.0 W/m2 OVC
21:47 -2.4 °C -9.1 °C 34235.8 hPa Calm     48 % 0 mm 0.0 W/m2 CLR
21:53 -2.6 °C -8.8 °C 34235.8 hPa Calm     50 % 0 mm 0.0 W/m2 CLR
21:58 -2.8 °C -9.3 °C 34235.8 hPa Calm     49 % 0 mm 0.0 W/m2 CLR
22:03 -2.9 °C -8.5 °C 34235.8 hPa Calm     54 % 0 mm 0.0 W/m2 CLR
22:08 -3.1 °C -8.3 °C 34246 hPa Calm     56 % 0 mm 0.0 W/m2 CLR
22:13 -3.3 °C -9.2 °C 34246 hPa Calm     52 % 0 mm 0.0 W/m2 CLR
22:18 -3.3 °C -9.2 °C 34246 hPa Calm     52 % 0 mm 0.0 W/m2 CLR
22:23 -3.3 °C -8.7 °C 34246 hPa Calm     55 % 0 mm 0.0 W/m2 CLR
22:28 -3.4 °C -8.4 °C 34246 hPa Calm     58 % 0 mm 0.0 W/m2 CLR
22:33 -3.6 °C -8.8 °C 34246 hPa Calm     56 % 0 mm 0.0 W/m2 CLR
22:38 -3.6 °C -8.7 °C 34256.2 hPa Calm     57 % 0 mm 0.0 W/m2 CLR
22:43 -3.7 °C -8.9 °C 34256.2 hPa Calm     56 % 0 mm 0.0 W/m2 CLR
22:48 -3.8 °C -8.7 °C 34256.2 hPa Calm     58 % 0 mm 0.0 W/m2 CLR
22:53 -3.8 °C -8.9 °C 34256.2 hPa Calm     57 % 0 mm 0.0 W/m2 CLR
22:58 -3.9 °C -9 °C 34256.2 hPa Calm     57 % 0 mm 0.0 W/m2 CLR
23:03 -3.9 °C -8.9 °C 34256.2 hPa Calm     57 % 0 mm 0.0 W/m2 CLR
23:08 -3.9 °C -8.8 °C 34256.2 hPa Calm     58 % 0 mm 0.0 W/m2 CLR
23:13 -4 °C -8.7 °C 34256.2 hPa Calm     59 % 0 mm 0.0 W/m2 CLR
23:18 -4.1 °C -8.8 °C 34256.2 hPa Calm     59 % 0 mm 0.0 W/m2 CLR
23:23 -4.2 °C -8.9 °C 34256.2 hPa Calm     59 % 0 mm 0.0 W/m2 CLR
23:28 -4.2 °C -8.9 °C 34256.2 hPa Calm     59 % 0 mm 0.0 W/m2 CLR
23:33 -4.2 °C -8.4 °C 34256.2 hPa Calm     63 % 0 mm 0.0 W/m2 CLR
23:38 -4.3 °C -8.7 °C 34256.2 hPa Calm     62 % 0 mm 0.0 W/m2 CLR
23:43 -4.4 °C -8.9 °C 34256.2 hPa Calm     61 % 0 mm 0.0 W/m2 CLR
23:48 -4.4 °C -8.6 °C 34269.7 hPa Calm     63 % 0 mm 0.0 W/m2 CLR
23:53 -4.4 °C -8.8 °C 34256.2 hPa Calm     61 % 0 mm 0.0 W/m2 CLR
23:58 -4.3 °C -8.9 °C 34256.2 hPa Calm     60 % 0 mm 0.0 W/m2 CLR
Lo Temps de Massalio
Compliments of Weather Underground - 1.25 mb